TimeCST,TemperatureF,Dew PointF,Humidity,Sea Level PressureIn,VisibilityMPH,Wind Direction,Wind SpeedMPH,Gust SpeedMPH,PrecipitationIn,Events,Conditions,WindDirDegrees,DateUTC
12:53 AM,19.9,14.0,78,30.28,10.0,West,5.8,-,N/A,,Clear,260,2013-12-26 06:53:00
1:53 AM,17.1,12.0,81,30.27,10.0,SW,8.1,-,N/A,,Clear,230,2013-12-26 07:53:00
2:53 AM,16.0,12.0,84,30.26,10.0,SSW,8.1,-,N/A,,Clear,200,2013-12-26 08:53:00
3:53 AM,17.1,12.0,81,30.24,10.0,South,5.8,-,N/A,,Overcast,190,2013-12-26 09:53:00
4:53 AM,16.0,10.9,81,30.24,10.0,SSW,9.2,-,N/A,,Partly Cloudy,210,2013-12-26 10:53:00
5:53 AM,16.0,10.9,81,30.25,10.0,SSW,10.4,-,N/A,,Clear,210,2013-12-26 11:53:00
6:53 AM,16.0,10.9,81,30.22,10.0,SSW,10.4,-,N/A,,Clear,200,2013-12-26 12:53:00
7:53 AM,18.0,12.9,81,30.23,10.0,South,11.5,-,N/A,,Partly Cloudy,190,2013-12-26 13:53:00
8:53 AM,21.0,16.0,81,30.22,10.0,SSW,10.4,-,N/A,,Partly Cloudy,200,2013-12-26 14:53:00
9:53 AM,28.9,21.0,72,30.20,10.0,SSW,13.8,-,N/A,,Scattered Clouds,210,2013-12-26 15:53:00
10:53 AM,35.1,24.1,64,30.20,10.0,SSW,10.4,-,N/A,,Mostly Cloudy,200,2013-12-26 16:53:00
11:53 AM,39.9,25.0,55,30.16,10.0,SSW,13.8,-,N/A,,Overcast,210,2013-12-26 17:53:00
12:53 PM,39.9,25.0,55,30.14,10.0,WSW,13.8,-,N/A,,Overcast,250,2013-12-26 18:53:00
1:53 PM,39.0,26.1,60,30.13,10.0,SW,17.3,-,N/A,,Mostly Cloudy,230,2013-12-26 19:53:00
2:53 PM,39.9,26.1,58,30.13,10.0,WSW,15.0,24.2,N/A,,Partly Cloudy,240,2013-12-26 20:53:00
3:53 PM,39.0,26.1,60,30.14,10.0,WSW,13.8,-,N/A,,Clear,250,2013-12-26 21:53:00
4:53 PM,37.0,26.1,65,30.17,10.0,WSW,9.2,-,N/A,,Clear,250,2013-12-26 22:53:00
5:53 PM,36.0,25.0,64,30.19,10.0,West,12.7,-,N/A,,Clear,260,2013-12-26 23:53:00
6:53 PM,33.1,24.1,70,30.21,10.0,West,10.4,-,N/A,,Clear,260,2013-12-27 00:53:00
7:53 PM,30.9,23.0,72,30.22,10.0,WSW,8.1,-,N/A,,Clear,250,2013-12-27 01:53:00
8:53 PM,30.0,21.9,72,30.24,10.0,West,6.9,-,N/A,,Clear,260,2013-12-27 02:53:00
9:53 PM,28.0,21.0,75,30.23,10.0,WSW,6.9,-,N/A,,Clear,240,2013-12-27 03:53:00
10:53 PM,26.1,21.0,81,30.24,10.0,WSW,9.2,-,N/A,,Clear,240,2013-12-27 04:53:00
11:53 PM,24.1,19.9,84,30.25,10.0,SW,8.1,-,N/A,,Clear,230,2013-12-27 05:53:00